Theta_e
327 326 324 325 325 324 324 322 317 312 315 323 323 322 325 325 325 324 324 326 327 325 325 326 326 328 328 328 328 328 328 328 328 328 328 328 326 325
324 323 324 324 324 325 324 322 323 319 313 323 324 321 322 324 326 327 326 327 326 325 326 325 324 325 326 327 326 326 327 327 327 327 328 327 327 326
321 321 321 321 321 321 321 322 320 319 312 320 321 322 321 321 322 325 325 326 326 326 326 325 323 323 323 325 325 325 325 325 325 326 326 326 326 326
317 317 317 317 316 317 317 317 318 318 315 312 317 318 317 321 321 321 320 323 323 325 325 324 323 321 321 322 322 322 322 322 322 323 323 324 324 325
315 314 314 313 313 314 314 314 316 317 316 315 313 318 317 319 319 320 317 319 319 323 323 322 321 321 320 320 320 319 317 316 315 317 318 319 319 320
313 313 313 312 312 313 314 314 314 313 314 314 315 315 317 319 316 313 313 316 318 318 321 322 322 321 320 320 320 319 314 312 311 312 312 312 312 314
311 311 312 313 315 317 316 315 313 311 312 310 312 312 313 313 312 316 314 314 313 316 316 317 319 321 321 319 322 320 313 311 309 309 308 307 307 308
307 309 310 311 312 312 312 312 313 311 310 309 310 308 311 312 314 314 314 311 308 314 314 313 317 314 315 316 315 312 310 309 308 307 306 304 304 304
307 307 307 308 309 309 310 309 309 308 311 311 308 309 309 312 312 312 312 312 310 315 313 310 313 312 315 314 312 310 308 307 306 305 304 304 303 302
308 308 306 307 308 307 307 308 308 309 310 309 310 310 311 312 311 312 313 313 314 314 314 308 311 310 312 313 311 309 307 305 304 304 303 303 301 300
307 308 307 306 302 300 300 302 304 306 308 306 305 304 303 302 305 309 308 307 308 309 313 310 308 308 308 307 309 308 305 304 304 303 303 302 300 300
307 306 303 303 299 298 299 297 297 301 304 305 306 305 304 307 304 309 310 307 308 306 311 309 307 308 304 308 307 307 306 304 303 303 302 302 300 306
303 303 304 299 298 297 297 299 299 302 302 302 303 304 305 306 307 310 310 309 307 308 314 312 307 305 304 302 306 306 307 305 305 303 301 300 300 303
302 302 303 297 296 296 299 298 297 299 301 300 300 301 302 306 307 309 310 310 312 312 314 315 309 309 302 300 299 306 306 306 305 305 305 302 299 298
302 301 298 296 296 300 300 299 301 304 302 300 301 303 305 306 307 307 309 311 310 312 313 313 311 311 307 304 301 302 301 301 303 304 303 303 304 304
300 299 299 298 297 299 303 305 305 306 305 303 303 305 307 307 307 308 307 308 307 307 312 314 312 311 306 304 304 302 302 298 301 302 302 302 304 305
295 300 300 299 300 300 301 303 306 306 305 305 304 303 303 306 307 308 307 307 304 304 305 303 305 306 307 306 302 301 300 300 302 301 300 299 300 303
298 297 297 297 297 297 297 299 302 302 303 303 303 305 302 302 303 306 307 307 304 306 300 300 300 300 300 299 305 300 300 300 301 302 302 298 296 298
297 296 296 295 295 296 297 297 297 299 300 300 300 304 303 304 303 303 304 306 306 303 302 302 301 299 296 291 296 299 299 299 300 298 300 301 297 296
296 295 294 295 295 295 296 297 299 298 298 298 299 301 305 303 302 301 304 304 301 302 301 302 302 301 297 295 292 296 297 301 302 297 294 294 294 294
294 294 295 294 294 295 295 296 297 297 296 298 298 298 301 303 301 302 303 297 299 302 300 301 297 292 299 300 294 294 297 298 302 299 296 296 294 294
295 294 294 294 294 294 295 296 297 297 297 296 296 298 297 302 302 302 302 301 300 299 296 297 300 300 300 296 292 292 294 296 298 298 298 298 301 295
295 294 294 294 294 294 294 294 295 296 297 297 296 297 297 298 301 302 301 301 299 297 297 295 296 297 297 295 293 293 294 295 296 294 294 297 299 299
Wind_Speed
4 4 3 3 3 3 5 5 5 7 6 5 4 5 6 7 13 11 13 20 24 27 27 27 27 27 28 28 27 27 26 22 22 21 21 20 20 21
2 4 4 3 4 3 3 4 5 6 6 2 5 5 7 8 11 12 12 19 21 24 28 28 29 29 28 28 28 27 24 21 19 18 18 19 18 18
3 3 5 3 3 4 3 4 6 5 7 5 3 2 5 10 8 8 8 10 9 15 18 26 29 29 30 28 25 26 26 22 19 18 17 17 17 16
5 5 6 4 6 5 3 6 5 6 4 9 6 4 7 7 8 9 7 6 6 11 14 16 24 27 27 26 26 23 22 21 19 17 16 16 15 17
4 5 6 5 6 4 5 5 5 5 5 4 5 3 3 4 5 7 5 5 4 9 12 12 16 25 26 26 26 19 18 17 16 15 14 14 14 13
5 5 6 6 7 7 6 7 5 5 6 7 5 6 5 5 4 5 5 4 7 6 9 8 7 18 25 27 25 25 21 18 17 16 15 13 12 12
6 5 4 7 12 9 5 7 6 4 5 6 6 4 5 4 5 4 5 5 4 5 4 4 4 6 10 20 21 23 17 17 16 16 14 14 12 12
6 6 6 10 10 12 11 9 8 6 6 4 5 6 8 5 4 5 6 3 4 3 3 4 5 6 6 6 15 20 17 16 14 16 15 14 13 12
7 6 8 7 10 8 10 11 9 8 10 5 7 7 7 4 3 5 6 5 5 4 3 2 3 5 6 8 20 14 21 16 16 15 14 14 13 12
5 5 5 8 8 10 11 10 10 9 8 4 6 9 8 7 6 6 6 3 2 2 3 2 2 3 3 2 15 22 19 15 13 16 15 14 13 11
6 7 8 9 12 12 10 11 13 11 7 9 11 12 13 9 7 4 5 4 3 2 4 2 3 2 2 3 6 15 14 16 12 13 14 14 12 11
7 7 9 10 14 11 9 9 10 13 11 12 9 8 9 9 11 8 6 7 4 2 4 4 3 3 2 2 6 8 9 12 9 9 11 12 13 7
4 5 6 11 15 17 14 8 9 11 12 9 8 8 8 7 7 7 8 6 7 5 3 4 2 2 2 2 3 8 9 8 6 5 10 12 13 9
4 5 7 12 15 16 11 13 13 11 5 5 5 6 6 7 5 7 7 7 7 9 7 7 3 4 3 2 3 5 8 8 7 5 6 7 8 7
4 8 13 14 13 10 10 13 9 4 4 3 5 6 5 5 4 3 5 7 7 6 4 7 4 6 5 5 5 7 10 4 5 7 6 7 7 6
8 8 9 11 11 10 8 7 4 4 5 5 5 6 6 3 4 4 4 4 4 4 8 8 9 7 6 5 8 8 7 7 5 6 6 5 4 3
6 3 5 7 7 8 8 7 7 6 7 7 6 6 6 6 4 4 4 4 4 5 4 3 6 5 3 10 9 11 10 7 7 8 5 5 3 2
3 4 6 7 7 8 8 8 7 8 7 8 7 5 6 4 4 3 4 5 5 5 6 6 9 9 11 11 12 11 7 6 7 8 9 6 3 3
5 6 6 7 7 7 7 7 7 7 8 7 7 6 7 5 2 2 3 5 4 5 7 8 6 10 12 8 4 16 7 8 7 7 5 4 6 5
5 6 7 7 7 7 7 7 7 7 7 7 8 8 8 6 3 5 6 4 7 8 8 8 7 7 10 6 5 4 8 11 9 7 5 7 7 9
7 7 6 6 7 7 7 7 8 8 7 7 8 8 7 5 7 7 4 9 11 10 11 9 4 9 10 8 6 4 7 12 7 9 9 7 5 4
6 6 7 7 7 8 8 8 8 9 9 9 9 9 6 6 6 8 8 10 11 10 8 6 7 7 4 7 8 7 6 9 17 20 14 4 3 6
5 5 6 7 7 8 9 8 8 8 8 8 9 8 7 5 5 6 7 8 9 9 9 8 7 7 8 9 10 7 13 10 7 8 8 14 7 5
Wind_Direction
284 269 254 268 266 242 241 245 262 284 280 277 260 241 220 210 219 219 221 235 232 229 228 227 226 223 218 216 217 220 223 221 219 217 217 217 208 207
266 282 280 271 273 245 273 277 251 266 283 247 274 231 227 232 225 221 215 220 227 233 229 226 228 227 225 219 215 214 218 216 213 210 209 208 208 212
342 317 303 305 292 296 286 278 279 277 282 286 266 261 244 239 242 242 245 231 220 217 230 232 228 227 226 224 221 213 210 206 203 203 204 201 200 204
321 325 302 327 312 303 296 290 279 276 263 277 284 282 260 255 249 242 237 231 230 229 219 231 232 225 222 221 222 211 202 196 189 193 197 193 193 193
289 291 286 303 296 296 294 285 276 276 263 252 267 268 260 261 269 249 238 231 225 246 246 227 234 225 214 212 213 204 192 181 175 179 177 172 165 166
288 276 278 282 280 287 285 282 284 287 284 280 259 264 258 252 227 266 264 241 255 223 239 235 240 224 215 208 202 195 178 172 172 166 164 163 160 162
309 304 293 293 295 271 268 279 283 279 281 279 281 254 261 250 236 238 245 266 247 236 217 215 200 222 220 208 199 188 164 154 159 156 160 158 160 160
301 307 306 304 309 296 301 276 247 259 274 274 282 270 271 265 269 257 260 267 285 195 228 226 186 187 164 163 153 143 141 158 162 154 159 158 161 163
298 308 322 322 320 312 306 299 288 261 236 251 277 278 287 282 292 269 243 247 260 294 208 255 189 197 180 164 151 154 153 164 156 153 158 162 162 166
312 333 313 312 320 327 324 304 292 283 277 242 243 266 265 284 266 279 286 244 255 247 209 275 191 188 125 133 172 160 162 156 160 158 164 162 161 171
338 343 340 346 342 343 322 304 296 287 277 257 251 247 261 253 248 264 247 220 248 227 203 251 180 124 129 141 169 162 151 145 149 163 163 159 159 164
334 344 339 342 324 322 314 302 291 288 296 299 293 279 270 268 218 217 239 238 209 210 200 201 165 144 138 137 157 155 151 143 148 167 168 160 152 157
339 346 325 317 329 329 319 299 275 288 296 292 292 286 279 278 262 219 220 224 222 216 179 158 140 109 78 135 129 165 161 149 144 181 176 157 159 161
327 315 305 318 316 313 318 311 295 289 283 287 279 279 274 273 239 236 217 218 232 233 169 169 157 163 126 133 136 155 154 145 147 159 166 150 145 127
295 301 302 300 300 306 313 318 330 319 296 286 276 282 269 254 251 233 229 220 227 222 188 188 174 181 174 162 152 160 142 135 135 144 155 161 162 171
341 320 309 294 284 283 313 315 309 317 318 310 306 302 294 252 250 226 218 186 197 206 227 208 206 195 187 169 155 152 148 138 126 145 131 112 129 174
325 327 351 354 344 342 329 317 313 317 322 319 308 302 292 292 260 215 202 182 200 197 163 78 91 102 160 157 147 140 121 107 131 128 120 109 80 109
16 1 349 346 347 341 338 333 343 341 336 326 308 308 319 282 284 265 212 199 184 189 133 132 121 114 98 54 83 117 97 122 138 144 136 120 110 97
17 359 352 349 341 338 338 339 333 330 327 343 328 320 332 314 290 273 244 220 186 140 147 143 144 125 113 95 66 38 114 132 129 111 123 122 142 143
16 359 350 350 345 341 347 342 335 340 349 344 344 335 331 326 311 270 227 167 136 129 128 103 90 108 113 113 102 57 52 146 142 120 107 82 82 101
9 5 2 358 354 351 354 350 349 350 347 348 348 345 329 349 350 14 103 122 119 121 128 106 75 86 101 104 84 64 63 62 92 138 139 126 118 146
16 14 8 5 0 359 354 351 354 1 359 1 357 356 342 354 21 32 36 83 85 90 92 91 101 111 103 119 116 111 100 80 77 73 56 62 169 177
18 12 7 4 1 1 354 350 350 352 354 358 359 1 360 4 5 34 72 88 89 96 107 92 79 78 93 105 110 104 112 105 99 85 53 32 69 92